Regional Weather Roundup
Issued by NWS

Home | Current Version | Previous Version | Text Only | Print | Product List | Glossary Off
Versions: 1 2 3 4 5 6 7 8 9 10 11 12 13 14 15 16 17 18 19 20 21 22 23 24 25 26 27 28 29 30 31 32 33 34 35 36 37 38 39 40 41 42 43 44 45 46 47 48 49 50

000
ASUS43 KDMX 210701
RWRIA

WEATHER ROUNDUP FOR IOWA
NATIONAL WEATHER SERVICE DES MOINES IA
200 AM CDT MON AUG 21 2017

NOTE: "FAIR" INDICATES FEW OR NO CLOUDS BELOW 12,000 FEET WITH NO
SIGNIFICANT WEATHER AND/OR OBSTRUCTIONS TO VISIBILITY.

* - THESE STATIONS ARE NOT NWS STATIONS...THUS NOT UNDER NWS
QUALITY CONTROL.  THEY ALSO DO NOT REPORT WEATHER SUCH
AS PRECIPITATION OR FOG.

IAZ001>003-012>014-020>022-031>034-043>046-210800-
   NORTHWEST IOWA

CITY           SKY/WX    TMP DP  RH WIND       PRES   REMARKS
CARROLL *      CLOUDY    68  68 100 S17G26    30.04F FOG
LE MARS *      CLOUDY   104 N/A N/A E6G14     29.97F
ORANGE CITY *  LGT RAIN  72  72 100 SE5       29.98F
SHELDON *      CLOUDY    70  66  88 CALM      29.99R
SIOUX CITY     CLOUDY    70  69  97 CALM      29.96S
SPENCER        CLOUDY    70  68  93 SE15      30.00S THUNDER
STORM LAKE *   CLOUDY    70  66  88 S15       30.00F
$$

IAZ055>058-069>071-079>083-090>094-210800-
   SOUTHWEST IOWA

CITY           SKY/WX    TMP DP  RH WIND       PRES   REMARKS
ATLANTIC *     CLOUDY    70  64  83 NW41G54   30.01R
AUDUBON *      HVY RAIN  64  63  94 NE5G16    30.10R
CLARINDA *     CLEAR     72  70  94 S5        29.98S
COUNCIL BLFS * CLOUDY    72  70  94 NE17      30.01R
CRESTON *      CLOUDY    70  66  88 SE10      29.99F
HARLAN  *      HVY RAIN  64  64 100 NE22G45   30.09R VSB 1/2
LAMONI         CLEAR     70  65  84 SE8       30.00S
RED OAK *      PTCLDY    72  68  88 SE5       29.96S
SHENANDOAH *   CLEAR     72  70  94 NE3       29.95R
$$

IAZ047>049-059>061-072>074-084-210800-
   CENTRAL IOWA

CITY           SKY/WX    TMP DP  RH WIND       PRES   REMARKS
AMES           CLOUDY    70  69  97 CALM      29.99F
ANKENY *       CLOUDY    70  66  88 E5        30.00S
BOONE *        LGT RAIN  75  68  78 W15G28    30.05R
CHARITON *     CLOUDY    68  64  88 SE6       30.02R
DES MOINES     CLOUDY    73  64  73 VRB5      30.01R THUNDER
GRINNELL*      MOCLDY    67  65  93 CALM      30.03F
KNOXVILLE *    CLOUDY    68  64  88 NE6       30.00F
MARSHALLTOWN   CLOUDY    68  68 100 E5        30.01R
NEWTON *       CLOUDY    68  66  94 S6        30.02R
PELLA *        CLOUDY    68  66  93 CALM      30.03S
PERRY *        RAIN      70  69  96 NW9       30.03F
$$

IAZ004>006-015-016-023>025-035-036-210800-
   NORTH CENTRAL IOWA

CITY           SKY/WX    TMP DP  RH WIND       PRES   REMARKS
ALGONA *       CLOUDY    72  72 100 SW18G25   30.03R
CLARION *      CLOUDY    70  70 100 S8        30.02R
ESTHERVILLE    CLOUDY    67  67 100 E3        30.00S
FORT DODGE *   CLOUDY    70  64  83 S8        30.02F
MASON CITY     CLOUDY    68  66  93 S6        30.02S
FOREST CITY *  MOCLDY    68  68 100 S3        30.01R
WEBSTER CITY * CLOUDY    72  68  88 SW10G25   30.02R
IOWA FALLS *     N/A     70  68  94 SE5       30.02F
$$

IAZ007>011-017>019-026>030-037>042-050>054-066-210800-
   NORTHEAST IOWA

CITY           SKY/WX    TMP DP  RH WIND       PRES   REMARKS
CEDAR RAPIDS     N/A     67  67 100 E3        30.01F FOG
CHARLES CITY * CLOUDY    68  68 100 S7        30.02S
CLINTON *      CLEAR     65  64  97 NE5       30.02F FOG
DECORAH *      CLEAR     66  64  94 S6        30.01S
DUBUQUE        CLEAR     64  63  96 CALM      30.03S
MONTICELLO *   CLOUDY    61  61 100 CALM      30.03R FOG
OELWEIN *      CLOUDY    64  64 100 S8        30.04R
WATERLOO       CLOUDY    69  66  90 S8        30.01S
$$

IAZ064-065-067-068-078-210800-
   EAST CENTRAL IOWA

CITY           SKY/WX    TMP DP  RH WIND       PRES   REMARKS
DAVENPORT      CLEAR     63  62  97 CALM      30.04S FOG
IOWA CITY      PTCLDY    69  66  90 CALM      30.02F
MUSCATINE *    MOCLDY    68  66  94 CALM      30.01S
QUAD CITIES    MOCLDY    67  63  87 CALM      30.01R FOG
$$

IAZ062-063-075>077-085>089-095>099-210800-
   SOUTHEAST IOWA

CITY           SKY/WX    TMP DP  RH WIND       PRES   REMARKS
BURLINGTON     CLEAR     65  65 100 CALM      30.03R
FAIRFIELD *    MOCLDY    66  64  94 CALM      30.01S
FORT MADISON * CLEAR     66  66 100 CALM      30.04R
KEOKUK *       CLEAR     68  66  94 CALM      30.03R
OSKALOOSA *      N/A     67  65  96 CALM      30.02F
OTTUMWA        CLOUDY    69  67  93 SW6       30.01S
$$

ABBREVIATIONS USED IN REMARKS
   TC - TEMPERATURES IN CELSIUS
  WCI - WIND CHILL INDEX
   HX - HEAT INDEX
  VSB - VISIBILITY
$$




USA.gov is the U.S. government's official web portal to all federal, state and local government web resources and services.